Home > Weather > Dubrovnik > Past weeks

Flag for Croatia Weather for the Past 2 Weeks in Dubrovnik, Croatia

Now
45 °F

Scattered clouds.


Feels Like: 39 °F
Forecast: 41 / 47 °F
Wind: 10 mph from Northeast

Location: Dubrovnik / Cilipi

Current Time: Feb 11, 2016 at 4:35:50 PM

Latest Report: Feb 11, 2016 at 4:00 PM


Visibility: N/A

Pressure: 29.77 "Hg

Humidity: 76%

Dew point: 37 °F

Location of DubrovnikLocation

Historic Weather in Dubrovnik — Graph

°F

Dubrovnik Temperature Yesterday

Maximum temperature yesterday: 59 °F (at 11:30 AM)
Minimum temperature yesterday: 46 °F (at 10:00 PM)
Average temperature yesterday: 53 °F

High & Low Weather Summary for the Past Weeks

 TemperatureHumidityPressure
High63 °F (Feb 2, 2:30 PM)100% (Jan 30, 8:30 PM)30.48 "Hg (Jan 30, 8:30 PM)
Low36 °F (Feb 7, 2:30 AM)24% (Feb 6, 11:00 AM)29.47 "Hg (Feb 10, 2:00 PM)
Average51 °F74%30.18 "Hg
* Reported Jan 27 3:00 PM — Feb 11 3:30 PM, Dubrovnik, Weather by CustomWeather, © 2016

Note: Actual official high and low records may vary slightly from our data, if they occured in-between our weather recording intervals... More about our weather records

Advertising

Dubrovnik Weather History for the Previous 24 Hours

 ConditionsComfort  
Time TempWeatherWind HumidityBarometerVisibility
3:30 PM
Thu, Feb 11
45 °FLight rain. Scattered clouds.10 mph76%29.77 "HgN/A
3:00 PM45 °FLight rain. Passing clouds.5 mph76%29.77 "HgN/A
2:30 PM45 °FLight rain. Scattered clouds.3 mph81%29.77 "HgN/A
2:00 PM45 °FLight rain. Scattered clouds.5 mph81%29.77 "HgN/A
1:30 PM43 °FLight rain. Passing clouds.2 mph87%29.77 "HgN/A
1:00 PM43 °FLight rain. Passing clouds.5 mph93%29.80 "HgN/A
12:30 PM43 °FLight rain. Passing clouds.6 mph81%29.80 "Hg6 mi
12:00 PM43 °FLight rain. Passing clouds.8 mph81%29.83 "HgN/A
11:30 AM43 °FLight rain. Passing clouds.10 mph81%29.83 "HgN/A
11:00 AM43 °FLight rain. Scattered clouds.12 mph81%29.83 "HgN/A
10:30 AM43 °FLight rain. Passing clouds.9 mph87%29.83 "HgN/A
10:00 AM43 °FLight rain. Scattered clouds.7 mph87%29.83 "HgN/A
9:30 AM45 °FLight rain. Scattered clouds.7 mph81%29.83 "HgN/A
9:00 AM45 °FLight rain. Scattered clouds.6 mph61%29.83 "HgN/A
8:30 AM45 °FPassing clouds.5 mph57%29.83 "HgN/A
8:00 AM45 °FScattered clouds.10 mph57%29.80 "HgN/A
7:30 AM43 °FPassing clouds.9 mph61%29.80 "HgN/A
7:00 AM45 °FSunny.9 mph53%29.80 "Hg10 mi
6:30 AM43 °FClear.8 mph57%29.80 "Hg10 mi
6:00 AM45 °FClear.9 mph53%29.80 "Hg10 mi
5:30 AM45 °FClear.8 mph49%29.80 "Hg10 mi
5:00 AM46 °FPassing clouds.8 mph46%29.80 "HgN/A
4:30 AM45 °FPassing clouds.7 mph53%29.80 "HgN/A
4:00 AM45 °FPassing clouds.12 mph57%29.77 "HgN/A
3:30 AM45 °FPassing clouds.12 mph61%29.77 "HgN/A
3:00 AM45 °FPassing clouds.12 mph61%29.77 "HgN/A
2:30 AM46 °FPassing clouds.3 mph53%29.77 "HgN/A
2:00 AM46 °FPassing clouds.9 mph57%29.77 "HgN/A
1:00 AM46 °FClear.9 mph57%29.74 "Hg10 mi
12:30 AM46 °FClear.12 mph57%29.74 "Hg10 mi
12:00 AM46 °FPassing clouds.8 mph66%29.74 "HgN/A
11:30 PM
Wed, Feb 10
46 °FPassing clouds.9 mph66%29.74 "HgN/A
11:00 PM46 °FPassing clouds.6 mph66%29.71 "HgN/A
10:00 PM46 °FClear.5 mph66%29.68 "Hg10 mi
9:30 PM48 °FPassing clouds.6 mph66%29.68 "HgN/A
9:00 PM48 °FRain. Passing clouds.7 mph66%29.65 "HgN/A
8:30 PM48 °FClear.3 mph62%29.65 "Hg10 mi
8:00 PM50 °FPassing clouds.5 mph54%29.62 "HgN/A
7:30 PM48 °FPassing clouds.9 mph66%29.62 "HgN/A
7:00 PM50 °FPassing clouds.12 mph58%29.59 "HgN/A
6:30 PM48 °FPassing clouds.13 mph66%29.59 "HgN/A
6:00 PM50 °FPassing clouds.14 mph58%29.59 "HgN/A
5:30 PM48 °FPassing clouds.16 mph66%29.56 "HgN/A
5:00 PM48 °FPartly sunny.14 mph71%29.53 "HgN/A
4:30 PM48 °FPartly sunny.12 mph82%29.53 "HgN/A
4:00 PM48 °FLight rain. Partly sunny.14 mph82%29.50 "HgN/A
Weather by CustomWeather, © 2016

See weather overviewHow to use our weather pages